When you browse on this site, cookies collect data to enhance your experience and personalize the content and advertising you see.
Visit our Privacy Policy to learn more. By continuing to use the site, you agree to this use of cookies and data.
  • In Austria
  • List of Countries
  • For 7 days
  • Water Temperature
  • Satellite Maps
  • Weather Map
  • News
  • Weather Widgets
  • user-avatar
    Login

    Hourly Weather Rincon

    Today, 19 July, Friday

    Time Temperature Precipitation Wind Pressure Humidity
    00:00 +27°C° 0 mm 6 mps 762 mmHg 90%
    01:00 +27°C° 0 mm 6 mps 761 mmHg 91%
    02:00 +27°C° 0 mm 6 mps 761 mmHg 90%
    03:00 +27°C° 0 mm 5 mps 761 mmHg 90%
    04:00 +26°C° 0 mm 5 mps 761 mmHg 91%
    05:00 +26°C° 0 mm 4 mps 761 mmHg 91%
    06:00 +27°C° 0 mm 4 mps 761 mmHg 88%
    07:00 +28°C° 0 mm 4 mps 762 mmHg 85%
    08:00 +29°C° 0 mm 3 mps 762 mmHg 82%
    09:00 +31°C° 0 mm 3 mps 762 mmHg 78%
    10:00 +33°C° 0 mm 3 mps 762 mmHg 74%
    11:00 +34°C° 0 mm 3 mps 762 mmHg 70%
    12:00 +33°C° 0.6 mm 4 mps 762 mmHg 72%
    13:00 +33°C° 0.6 mm 4 mps 762 mmHg 74%
    14:00 +33°C° 0.6 mm 4 mps 762 mmHg 76%
    15:00 +33°C° 0.7 mm 4 mps 761 mmHg 78%
    16:00 +32°C° 0.7 mm 4 mps 761 mmHg 80%
    17:00 +32°C° 0.7 mm 5 mps 760 mmHg 82%
    18:00 +30°C° 0.3 mm 5 mps 761 mmHg 85%
    19:00 +29°C° 0.3 mm 6 mps 761 mmHg 87%
    20:00 +28°C° 0.3 mm 6 mps 761 mmHg 90%
    21:00 +28°C° 0 mm 6 mps 761 mmHg 91%
    22:00 +28°C° 0 mm 6 mps 761 mmHg 92%
    23:00 +27°C° 0 mm 6 mps 761 mmHg 93%

    Tomorrow, 20 July, Saturday

    Time Temperature Precipitation Wind Pressure Humidity
    00:00 +27°C° 0.2 mm 5 mps 761 mmHg 92%
    01:00 +27°C° 0.2 mm 5 mps 761 mmHg 92%
    02:00 +27°C° 0.2 mm 5 mps 761 mmHg 92%
    03:00 +26°C° 0 mm 4 mps 760 mmHg 91%
    04:00 +26°C° 0 mm 4 mps 760 mmHg 91%
    05:00 +26°C° 0 mm 3 mps 760 mmHg 90%
    06:00 +27°C° 0 mm 3 mps 760 mmHg 87%
    07:00 +28°C° 0 mm 3 mps 760 mmHg 83%
    08:00 +29°C° 0 mm 3 mps 761 mmHg 79%
    09:00 +30°C° 0.1 mm 2 mps 761 mmHg 74%
    10:00 +32°C° 0.1 mm 2 mps 761 mmHg 69%
    11:00 +34°C° 0.1 mm 2 mps 762 mmHg 64%
    12:00 +32°C° 1.9 mm 2 mps 761 mmHg 68%
    13:00 +32°C° 1.9 mm 2 mps 761 mmHg 71%
    14:00 +32°C° 1.9 mm 2 mps 761 mmHg 75%
    15:00 +31°C° 0.8 mm 2 mps 760 mmHg 78%
    16:00 +30°C° 0.8 mm 3 mps 760 mmHg 80%
    17:00 +30°C° 0.8 mm 3 mps 760 mmHg 83%
    18:00 +29°C° 0 mm 3 mps 760 mmHg 85%
    19:00 +28°C° 0 mm 4 mps 760 mmHg 87%
    20:00 +28°C° 0 mm 4 mps 760 mmHg 89%
    21:00 +27°C° 0 mm 4 mps 760 mmHg 90%
    22:00 +27°C° 0 mm 4 mps 761 mmHg 91%
    23:00 +27°C° 0 mm 3 mps 761 mmHg 92%

    Day after tomorrow, 21 July, Sunday

    Time Temperature Precipitation Wind Pressure Humidity
    00:00 +26°C° 0 mm 3 mps 761 mmHg 91%
    01:00 +26°C° 0 mm 3 mps 760 mmHg 91%
    02:00 +26°C° 0 mm 3 mps 760 mmHg 91%
    03:00 +25°C° 0 mm 3 mps 760 mmHg 90%
    04:00 +25°C° 0 mm 3 mps 760 mmHg 89%
    05:00 +25°C° 0 mm 3 mps 760 mmHg 88%
    06:00 +26°C° 0 mm 2 mps 760 mmHg 85%
    07:00 +27°C° 0 mm 2 mps 761 mmHg 81%
    08:00 +28°C° 0 mm 1 mps 761 mmHg 77%
    09:00 +30°C° 0 mm 2 mps 761 mmHg 73%
    10:00 +31°C° 0 mm 2 mps 761 mmHg 68%
    11:00 +33°C° 0 mm 3 mps 761 mmHg 64%
    12:00 +33°C° 0.3 mm 3 mps 761 mmHg 68%
    13:00 +33°C° 0.3 mm 3 mps 761 mmHg 72%
    14:00 +32°C° 0.3 mm 4 mps 761 mmHg 75%
    15:00 +31°C° 1 mm 3 mps 760 mmHg 77%
    16:00 +30°C° 1 mm 3 mps 760 mmHg 79%
    17:00 +30°C° 1 mm 3 mps 760 mmHg 82%
    18:00 +29°C° 0.3 mm 3 mps 760 mmHg 84%
    19:00 +28°C° 0.3 mm 4 mps 760 mmHg 86%
    20:00 +27°C° 0.3 mm 4 mps 760 mmHg 89%
    21:00 +27°C° 0.1 mm 4 mps 761 mmHg 89%
    22:00 +27°C° 0.1 mm 4 mps 761 mmHg 89%
    23:00 +26°C° 0.1 mm 4 mps 761 mmHg 90%

    22 July, Monday

    Time Temperature Precipitation Wind Pressure Humidity
    00:00 +26°C° 0.1 mm 4 mps 761 mmHg 90%
    01:00 +26°C° 0.1 mm 5 mps 760 mmHg 89%
    02:00 +25°C° 0.1 mm 5 mps 760 mmHg 89%
    03:00 +25°C° 0 mm 4 mps 760 mmHg 89%
    04:00 +25°C° 0 mm 4 mps 760 mmHg 89%
    05:00 +25°C° 0 mm 4 mps 760 mmHg 90%
    06:00 +26°C° 0 mm 4 mps 760 mmHg 87%
    07:00 +27°C° 0 mm 4 mps 760 mmHg 84%
    08:00 +28°C° 0 mm 3 mps 761 mmHg 82%
    09:00 +29°C° 0 mm 3 mps 761 mmHg 76%
    10:00 +30°C° 0 mm 3 mps 761 mmHg 70%
    11:00 +32°C° 0 mm 2 mps 762 mmHg 63%
    12:00 +33°C° 0.6 mm 3 mps 761 mmHg 65%
    13:00 +33°C° 0.6 mm 3 mps 761 mmHg 66%
    14:00 +33°C° 0.6 mm 3 mps 761 mmHg 67%
    15:00 +31°C° 0.5 mm 3 mps 761 mmHg 67%
    16:00 +31°C° 0.5 mm 3 mps 760 mmHg 68%
    17:00 +31°C° 0.5 mm 3 mps 760 mmHg 68%
    18:00 +30°C° 0.1 mm 3 mps 760 mmHg 73%
    19:00 +28°C° 0.1 mm 4 mps 761 mmHg 79%
    20:00 +27°C° 0.1 mm 4 mps 761 mmHg 84%
    21:00 +27°C° 0 mm 4 mps 761 mmHg 86%
    22:00 +26°C° 0 mm 4 mps 762 mmHg 87%
    23:00 +26°C° 0 mm 4 mps 762 mmHg 89%

    23 July, Tuesday

    Time Temperature Precipitation Wind Pressure Humidity
    00:00 +26°C° 0 mm 4 mps 762 mmHg 89%
    01:00 +26°C° 0 mm 4 mps 761 mmHg 89%
    02:00 +25°C° 0 mm 3 mps 761 mmHg 89%
    03:00 +25°C° 0 mm 3 mps 761 mmHg 89%
    04:00 +25°C° 0 mm 3 mps 761 mmHg 88%
    05:00 +25°C° 0 mm 3 mps 761 mmHg 88%
    06:00 +26°C° 0 mm 3 mps 761 mmHg 85%
    07:00 +27°C° 0 mm 3 mps 761 mmHg 83%
    08:00 +29°C° 0 mm 3 mps 762 mmHg 80%
    09:00 +30°C° 0 mm 3 mps 762 mmHg 75%
    10:00 +31°C° 0 mm 3 mps 762 mmHg 71%
    11:00 +33°C° 0 mm 3 mps 762 mmHg 66%
    12:00 +34°C° 1.3 mm 3 mps 762 mmHg 67%
    13:00 +34°C° 1.3 mm 3 mps 762 mmHg 68%
    14:00 +34°C° 1.3 mm 3 mps 761 mmHg 68%
    15:00 +33°C° 0.6 mm 3 mps 761 mmHg 72%
    16:00 +33°C° 0.6 mm 4 mps 761 mmHg 75%
    17:00 +32°C° 0.6 mm 5 mps 761 mmHg 78%
    18:00 +30°C° 0.1 mm 5 mps 761 mmHg 81%
    19:00 +29°C° 0.1 mm 5 mps 761 mmHg 84%
    20:00 +28°C° 0.1 mm 5 mps 762 mmHg 88%
    21:00 +28°C° 0 mm 5 mps 762 mmHg 88%
    22:00 +27°C° 0 mm 5 mps 762 mmHg 89%
    23:00 +27°C° 0 mm 5 mps 763 mmHg 90%

    24 July, Wednesday

    Time Temperature Precipitation Wind Pressure Humidity
    00:00 +26°C° 0 mm 5 mps 762 mmHg 90%
    01:00 +26°C° 0 mm 4 mps 762 mmHg 90%
    02:00 +26°C° 0 mm 4 mps 762 mmHg 90%
    03:00 +26°C° 0 mm 4 mps 762 mmHg 90%
    04:00 +25°C° 0 mm 4 mps 761 mmHg 91%
    05:00 +25°C° 0 mm 4 mps 761 mmHg 91%
    06:00 +26°C° 0 mm 4 mps 762 mmHg 88%
    07:00 +27°C° 0 mm 4 mps 762 mmHg 84%
    08:00 +28°C° 0 mm 4 mps 762 mmHg 81%
    09:00 +30°C° 0 mm 4 mps 762 mmHg 74%
    10:00 +32°C° 0 mm 4 mps 762 mmHg 68%
    11:00 +34°C° 0 mm 3 mps 762 mmHg 61%
    12:00 +34°C° 0 mm 4 mps 762 mmHg 63%
    13:00 +33°C° 0 mm 5 mps 762 mmHg 66%
    14:00 +33°C° 0 mm 5 mps 761 mmHg 69%
    15:00 +32°C° 0.2 mm 6 mps 761 mmHg 72%
    16:00 +30°C° 0.2 mm 6 mps 761 mmHg 75%
    17:00 +30°C° 0.2 mm 6 mps 761 mmHg 78%
    18:00 +29°C° 0 mm 6 mps 761 mmHg 81%
    19:00 +28°C° 0 mm 7 mps 761 mmHg 84%
    20:00 +27°C° 0 mm 7 mps 761 mmHg 87%
    21:00 +27°C° 0 mm 7 mps 761 mmHg 88%
    22:00 +27°C° 0 mm 7 mps 762 mmHg 89%
    23:00 +27°C° 0 mm 7 mps 762 mmHg 90%
    Show more